Flight Track Log - Related Links

Times and Time Zones

All times are in EDT time to prevent confusion due to time zone crossing. See the AAL1862 flight status page for this flight to view local times or setup timezone preferences in your user account.

Time Position Orientation Groundspeed Altitude Reporting Facility
EDT Latitude Longitude Course Direction KTS MPH feet Rate Location/Type
Fri 08:29:21 AM 29.5203 -98.4594 10° North 177 204 1,400  Level Houston Center
Fri 08:29:51 AM 29.5011 -98.4353 132° Southeast 188 216 2,600 2,337 Climbing Houston Center
Fri 08:30:56 AM 29.5131 -98.3706 78° East 236 272 5,100 2,381 Climbing Houston Center
Fri 08:31:57 AM 29.5833 -98.3681 North 260 299 7,600 2,634 Climbing Houston Center
Fri 08:32:00 AM 29.8835 -98.4194 North  Level FlightAware Approximate
Fri 08:32:59 AM 29.6689 -98.3722 358° North 287 330 10,500  Level Houston Center
Fri 08:33:00 AM 29.9710 -98.4058 10° North  Level FlightAware Approximate
Fri 08:34:00 AM 30.0582 -98.3884 10° North  Level FlightAware Approximate
Fri 08:34:00 AM 29.7600 -98.3792 356° North 324 373 12,600  Level Houston Center
Fri 08:35:02 AM 29.8586 -98.3817 359° North 351 404 15,400 2,585 Climbing Houston Center
Fri 08:36:03 AM 29.9689 -98.3869 358° North 367 422 17,900 2,341 Climbing Houston Center
Fri 08:37:05 AM 30.0739 -98.3917 358° North 377 434 20,200 1,902 Climbing Houston Center
Fri 08:38:06 AM 30.1825 -98.3831 North 391 450 21,800 1,415 Climbing Houston Center
Fri 08:39:08 AM 30.3078 -98.3636 North 419 482 23,100 1,317 Climbing Houston Center
Fri 08:40:09 AM 30.4128 -98.3494 North 439 505 24,500 1,610 Climbing Houston Center
Fri 08:41:11 AM 30.5589 -98.3275 North 446 513 26,400 1,707 Climbing Houston Center
Fri 08:42:12 AM 30.6869 -98.3086 North 453 521 28,000 1,268 Climbing Houston Center
Fri 08:43:14 AM 30.8186 -98.2892 North 462 532 29,000 484 Climbing Houston Center
Fri 08:44:16 AM 30.9494 -98.2692 North 468 539 29,000  Level Houston Center
Fri 08:45:17 AM 31.0789 -98.2503 North 464 534 29,000 49 Level Houston Center
Fri 08:46:19 AM 31.2014 -98.2092 16° North 458 527 29,100  Climbing Houston Center
Fri 08:47:20 AM 31.3167 -98.1414 27° Northeast 454 522 29,000 -49 Descending Houston Center
Fri 08:48:22 AM 31.4350 -98.0775 25° Northeast 459 528 29,000 -339 Level Houston Center
Fri 08:49:24 AM 31.5533 -98.0158 24° Northeast 458 527 28,300 -1,317 Descending Houston Center
Fri 08:50:25 AM 31.6717 -97.9492 26° Northeast 462 532 26,300 -2,098 Descending Houston Center
Fri 08:51:27 AM 31.7856 -97.8872 25° Northeast 452 520 24,000 -2,381 Descending Houston Center
Fri 08:52:31 AM 31.9119 -97.8172 25° Northeast 433 498 21,300 -2,323 Descending Fort Worth Center
Fri 08:53:31 AM 32.0019 -97.7686 25° Northeast 407 468 19,200 -2,250 Descending Fort Worth Center
Fri 08:54:31 AM 32.1086 -97.7078 26° Northeast 380 437 16,800 -2,100 Descending Fort Worth Center
Fri 08:55:31 AM 32.1964 -97.6589 25° Northeast 380 437 15,000 -1,700 Descending Fort Worth Center
Fri 08:56:31 AM 32.2925 -97.6075 24° Northeast 355 409 13,400 -1,400 Descending Fort Worth Center
Fri 08:57:31 AM 32.3656 -97.5658 26° Northeast 333 383 12,200 -1,150 Descending Fort Worth Center
Fri 08:58:31 AM 32.4492 -97.5192 25° Northeast 313 360 11,100 -550 Descending Fort Worth Center
Fri 08:59:31 AM 32.5036 -97.4650 40° Northeast 289 333 11,100  Level Fort Worth Center
Fri 09:00:31 AM 32.5661 -97.3889 46° Northeast 284 327 11,100  Level Fort Worth Center
Fri 09:01:31 AM 32.6183 -97.3272 45° Northeast 284 327 11,100  Level Fort Worth Center
Fri 09:02:31 AM 32.6789 -97.2556 45° Northeast 284 327 11,100  Level Fort Worth Center
Fri 09:03:31 AM 32.7164 -97.2083 47° Northeast 265 305 11,100 -100 Level Fort Worth Center
Fri 09:04:31 AM 32.7872 -97.1711 24° Northeast 217 250 10,900 -850 Descending Fort Worth Center
Fri 09:05:31 AM 32.8561 -97.1686 North 223 257 9,400 -1,500 Descending Fort Worth Center
Fri 09:06:31 AM 32.9064 -97.2181 320° Northwest 210 242 7,900 -1,550 Descending Fort Worth Center
Fri 09:07:31 AM 32.9439 -97.2722 310° West 221 254 6,300 -1,350 Descending Fort Worth Center
Fri 09:08:31 AM 33.0025 -97.3194 326° Northwest 233 268 5,200 -595 Descending Fort Worth Center
Fri 09:09:32 AM 33.0667 -97.3333 350° North 238 274 5,100 -149 Descending Dallas / Fort Worth TRACON
Fri 09:10:32 AM 33.1000 -97.2667 59° Northeast 233 268 4,900 -524 Descending Dallas / Fort Worth TRACON
Fri 09:11:38 AM 33.0500 -97.2167 140° Southeast 192 221 4,000 -912 Descending Dallas / Fort Worth TRACON
Fri 09:12:37 AM 33.0000 -97.1833 151° Southeast 181 208 3,000 -1,009 Descending Dallas / Fort Worth TRACON
Fri 09:13:31 AM 32.9667 -97.1500 140° Southeast 174 200 2,100 -835 Descending Dallas / Fort Worth TRACON
Fri 09:14:32 AM 32.9333 -97.1167 140° Southeast 145 167 1,400 -689 Descending Dallas / Fort Worth TRACON

Login

Don't have an account? Register now (free) for customized features, flight alerts, and more!